TimePST,TemperatureF,Dew PointF,Humidity,Sea Level PressureIn,VisibilityMPH,Wind Direction,Wind SpeedMPH,Gust SpeedMPH,PrecipitationIn,Events,Conditions,WindDirDegrees,DateUTC
12:53 AM,55.9,39.9,55,29.80,10.0,Calm,Calm,-,N/A,,Clear,0,2012-12-13 08:53:00
1:53 AM,57.9,43.0,58,29.79,10.0,NE,3.5,-,N/A,,Clear,50,2012-12-13 09:53:00
2:53 AM,57.0,44.1,62,29.77,10.0,SE,3.5,-,N/A,,Clear,130,2012-12-13 10:53:00
3:53 AM,55.9,44.1,64,29.75,10.0,Variable,3.5,-,N/A,,Clear,0,2012-12-13 11:53:00
4:53 AM,55.9,43.0,62,29.75,10.0,Calm,Calm,-,N/A,,Mostly Cloudy,0,2012-12-13 12:53:00
5:53 AM,55.0,44.1,67,29.75,10.0,NNE,5.8,-,N/A,,Overcast,20,2012-12-13 13:53:00
6:53 AM,55.0,45.0,69,29.78,10.0,Calm,Calm,-,0.01,Rain,Light Rain,0,2012-12-13 14:53:00
7:53 AM,55.0,46.9,74,29.79,10.0,WNW,4.6,-,0.03,,Overcast,300,2012-12-13 15:53:00
8:53 AM,55.9,50.0,80,29.80,10.0,Calm,Calm,-,N/A,,Overcast,0,2012-12-13 16:53:00
9:53 AM,57.0,48.9,74,29.83,10.0,NE,6.9,-,0.00,Rain,Light Rain,40,2012-12-13 17:53:00
10:53 AM,54.0,51.1,90,29.83,6.0,ENE,4.6,-,0.04,Rain,Light Rain,70,2012-12-13 18:53:00
11:53 AM,54.0,52.0,93,29.81,8.0,Calm,Calm,-,0.03,Rain,Light Rain,0,2012-12-13 19:53:00
12:03 PM,53.6,51.8,94,29.80,10.0,Calm,Calm,-,0.00,,Overcast,0,2012-12-13 20:03:00
12:53 PM,54.0,51.1,90,29.78,8.0,ESE,3.5,-,0.02,Rain,Light Rain,120,2012-12-13 20:53:00
1:53 PM,55.9,51.1,84,29.76,8.0,Calm,Calm,-,0.00,,Mostly Cloudy,0,2012-12-13 21:53:00
3:53 PM,55.0,50.0,83,29.74,8.0,Calm,Calm,-,0.00,,Overcast,0,2012-12-13 23:53:00
5:00 PM,53.6,51.8,94,29.73,10.0,Calm,Calm,-,0.00,Rain,Light Rain,0,2012-12-14 01:00:00
5:53 PM,54.0,52.0,93,29.73,10.0,Calm,Calm,-,0.01,Rain,Light Rain,0,2012-12-14 01:53:00
5:58 PM,53.6,51.8,94,29.73,10.0,Calm,Calm,-,0.00,Rain,Light Rain,0,2012-12-14 01:58:00
6:07 PM,53.6,51.8,94,29.73,10.0,Calm,Calm,-,0.00,Rain,Light Rain,0,2012-12-14 02:07:00
6:19 PM,53.6,51.8,94,29.72,10.0,Calm,Calm,-,0.00,Rain,Light Rain,0,2012-12-14 02:19:00
6:31 PM,53.6,51.8,94,29.72,10.0,NE,3.5,-,0.00,,Overcast,50,2012-12-14 02:31:00
6:53 PM,54.0,52.0,93,29.72,10.0,Calm,Calm,-,0.00,,Overcast,0,2012-12-14 02:53:00
7:53 PM,53.1,52.0,96,29.71,9.0,Calm,Calm,-,N/A,,Overcast,0,2012-12-14 03:53:00
8:53 PM,53.1,51.1,93,29.68,10.0,South,4.6,-,N/A,,Mostly Cloudy,180,2012-12-14 04:53:00
10:53 PM,52.0,50.0,93,29.68,10.0,SW,4.6,-,N/A,,Mostly Cloudy,220,2012-12-14 06:53:00
11:53 PM,52.0,48.9,89,29.65,10.0,Calm,Calm,-,N/A,,Clear,0,2012-12-14 07:53:00